Find Starlink 34023

NORAD ID: 63875 Int'l Des: 2025-094 Owner: SPXS Country: US Constellation: starlink operational
LEOCIRCULAR

当前视图

正在加载3D地球...

About Starlink 34023

Starlink 34023 (NORAD 63875) is a starlink constellation satellite (v2 mini) launched May 10, 2025 by SPXS of US. It operates in LEO, CIRCULAR orbit with a mass of 575.00 kg.

关于 Starlink 34023

正在加载描述...

即将过境

Passes for default location (London). Set your location on the main map for personalized predictions.

高度历史

Loading altitude history...

两行轨道根数

1 63875U 25094M 26194.65594110 .00001843 00000-0 16220-3 0 9992
2 63875 70.0008 276.7745 0003678 267.8402 92.2335 14.98333953 66067
Epoch: Jul 13, 2026 • Age: 15 hours

当前状态

高度 576.4 km
远地点 / 近地点 N/A
速度 7.57 km/s
星下点 29.46°N, 48.89°E
发射日期 May 10, 2025
运行时间 1.1 years
类型 internet

技术详情

分类 Payload
质量 575.00 kg
干质量 530.00 kg
总质量 575.00 kg
长度 0.30 m
直径 4.10 m
跨度 29.00 m
形状 Box + pan
制造商 SPXS
平台类型 Starlink V2MO
阶段状态 In Orbit
所有者/国家 SPXS/US

Most Searched